Tracking 31013 objects as of 11-Jul-2025
HD Live streaming from Space Station
objects crossing your sky now

PEGASUS R/B

Track PEGASUS R/B now!
10-day predictions


NORAD ID: 26375
Int'l Code: 2000-030B
Perigee: 416.3 km
Apogee: 1,285.2 km
Inclination: 68.9 °
Period: 101.8 minutes
Semi major axis: 7221 km
RCS: 1.4323 m2 (large)
Launch date: June 7, 2000
Source: United States (US)
Launch site: Pegasus launched from Western Range Air Space (WRAS)

Note: This is a ROCKET BODY
Your satellite tracking list
Your tracking list is empty




NASA's NSSDC Master Catalog

Two Line Element Set (TLE):
1 26375U 00030B   25191.84764211  .00002140  00000-0  18576-3 0  9994
2 26375  68.9439 208.8899 0601621 120.1024 246.1134 14.14623711270857
Source of the keplerian elements: AFSPC